• MPC Preparation (Info)

  • MPEC 2019-L99 : 2019 KT5

    The following Minor Planet Electronic Circular may be linked-to from your own Web pages, but must not otherwise be redistributed electronically.

    A form allowing access to any MPEC is at the bottom of this page.


    Read MPEC 2019-L98 Read MPEC 2019-L100


    M.P.E.C. 2019-L99                                Issued 2019 June 15, 02:27 UT  
    
         The Minor Planet Electronic Circulars contain information on unusual
             minor planets and routine data on comets.  They are published
        on behalf of Division F of the International Astronomical Union by the
              Minor Planet Center, Smithsonian Astrophysical Observatory,
                              Cambridge, MA 02138, U.S.A.
    
                 Prepared using the Tamkin Foundation Computer Network
    
                                  MPC@CFA.HARVARD.EDU
                URL https://www.minorplanetcenter.net/    ISSN 1523-6714
    
                                       2019 KT5
    
    Observations:
         K19K05T  C2015 05 21.50132 16 44 25.722-09 45 55.89         22.4 GV     F51
         K19K05T  C2015 05 21.50820 16 44 25.142-09 45 56.07         22.6 GV     F51
         K19K05T  C2015 05 21.51367 16 44 24.690-09 45 54.92         22.8 GV     F51
         K19K05T  C2015 05 21.52051 16 44 24.122-09 45 54.63         22.3 GV     F51
         K19K05T  C2015 05 21.52598 16 44 23.660-09 45 54.26         22.3 GV     F51
         K19K05T  C2015 05 22.48505 16 43 06.204-09 44 55.57         22.3 GV     F51
         K19K05T  C2015 05 22.49763 16 43 05.143-09 44 54.52         22.4 GV     F51
         K19K05T  C2015 05 22.51021 16 43 04.110-09 44 54.12         22.2 GV     F51
         K19K05T  C2015 05 22.52276 16 43 03.042-09 44 53.21         22.4 GV     F51
         K19K05T  C2015 06 23.40363 16 07 11.278-10 15 24.40         22.5 GV     F51
         K19K05T  C2015 06 23.41552 16 07 10.715-10 15 26.49         23.6 GV     F51
         K19K05T  C2019 05 02.48840416 55 32.223-09 30 40.96         22.3 GV     F51
         K19K05T  C2019 05 02.49876516 55 31.486-09 30 38.98         22.6 GV     F51
         K19K05T  C2019 05 02.49941716 55 31.437-09 30 38.97         22.1 GV     F51
         K19K05T  C2019 05 02.50973716 55 30.719-09 30 37.10         21.7 GV     F51
         K19K05T  C2019 05 02.51039216 55 30.665-09 30 36.91         22.8 GV     F51
         K19K05T  C2019 05 02.52071916 55 29.935-09 30 35.03         21.7 GV     F51
         K19K05T* C2019 05 30.40122 16 19 08.251-08 45 49.86         21.9 wU     F51
         K19K05T  C2019 05 30.41326 16 19 07.313-08 45 49.90         22.5 wU     F51
         K19K05T  C2019 05 30.43744 16 19 05.398-08 45 50.18         22.3 wU     F51
         K19K05T  C2019 05 31.42184016 17 50.712-08 46 07.33         22.3 GV     F52
         K19K05T  C2019 05 31.43476016 17 49.679-08 46 07.70         22.4 GV     F52
         K19K05T  C2019 05 31.44765916 17 48.678-08 46 07.84         22.0 GV     F52
         K19K05T  C2019 05 31.44831716 17 48.641-08 46 07.99         22.2 GV     F51
         K19K05T  C2019 05 31.46066316 17 47.652-08 46 08.21         23.1 GV     F52
         K19K05T  C2019 06 01.41375316 16 36.403-08 46 32.98         22.3 GV     F51
         K19K05T  C2019 06 01.42583616 16 35.484-08 46 33.46         22.1 GV     F51
         K19K05T  C2019 06 01.43792516 16 34.549-08 46 33.68         22.1 GV     F51
         K19K05T  C2019 06 03.49635016 14 03.819-08 47 53.19         22.5 GV     F51
         K19K05T |C2019 06 06.19903 16 10 54.45 -08 50 25.2          22.4 GU     807
         K19K05T |C2019 06 06.20819 16 10 53.83 -08 50 26.2          22.2 GU     807
         K19K05T |C2019 06 06.21738 16 10 53.17 -08 50 26.7          22.0 GU     807
         K19K05T  C2019 06 07.44711216 09 30.327-08 52 03.05         22.5 GV     F51
    
    Observer details:
    807 Cerro Tololo Observatory, La Serena.  Observers T. Linder, R. Holmes.  
        1.00-m f/10.0 astrograph + CCD.
    F51 Pan-STARRS 1, Haleakala.  Observers J. Bulger, K. Chambers, T. Lowe,
        E. Magnier, A. Schultz, M. Willman.  1.8-m Ritchey-Chretien + CCD.
    F52 Pan-STARRS 2, Haleakala.  Observers J. Bulger, K. Chambers, T. Dukes,
        T. Lowe, E. Magnier, A. Schultz, , M. Willman.  
        1.8-m Ritchey-Chretien + CCD.
    
    Orbital elements:
    2019 KT5                                                 Earth MOID = 0.0944 AU
    Epoch 2019 Apr. 27.0 TT = JDT 2458600.5                 MPC
    M  39.62920              (2000.0)            P               Q
    n   0.24501967     Peri.  356.25835     -0.63699479     -0.76488335
    a   2.5293101      Node   133.27900     +0.71063201     -0.63085576
    e   0.5734060      Incl.    7.56700     +0.29873028     -0.13028611
    P   4.02           H   19.7           G   0.15           U   3
    Residuals in seconds of arc
    150521 F51  0.0   0.0     190502 F51  0.0   0.1+    190531 F52  0.0   0.3+
    150521 F51  0.1-  0.6-    190502 F51  0.0   0.1+    190531 F51  0.2+  0.1+
    150521 F51  0.0   0.2+    190502 F51  0.1-  0.0     190531 F52  0.1-  0.2+
    150521 F51  0.0   0.0     190502 F51  0.1+  0.1-    190601 F51  0.2-  0.1+
    150521 F51  0.0   0.0     190502 F51  0.0   0.1-    190601 F51  0.0   0.0
    150522 F51  0.0   0.1-    190502 F51  0.0   0.1-    190601 F51  0.1-  0.1+
    150522 F51  0.1-  0.2+    190530 F51  0.1-  0.0     190603 F51  0.3-  0.1-
    150522 F51  0.1+  0.1-    190530 F51  0.1+  0.1+    190606 807  0.0   0.2-
    150522 F51  0.2-  0.0     190530 F51  0.1+  0.2+    190606 807  0.4+  0.6-
    150623 F51  0.1+  0.1-    190531 F52  0.3+  0.2+    190606 807  0.2+  0.4-
    150623 F51  0.0   0.2-    190531 F52  0.1-  0.1+    190607 F51  0.2+  0.3+
    
    Ephemeris:
    2019 KT5                 a,e,i = 2.53, 0.57, 8                   q = 1.0790
    Date    TT    R. A. (2000) Decl.     Delta      r    Elong.  Phase     V
    2019 05 16    16 38 25.8 -08 56 50   1.2040  2.1830   160.4     8.9    22.4
    ...
    2019 05 31    16 18 22.7 -08 45 56   1.2876  2.2861   166.7     5.9    22.5
    ...
    2019 06 08    16 08 54.0 -08 52 45   1.3562  2.3398   161.1     8.1    22.8
    ...
    2019 06 14    16 02 48.9 -09 03 27   1.4182  2.3794   155.4    10.2    23.0
    2019 06 15    16 01 53.9 -09 05 40   1.4294  2.3859   154.4    10.6    23.0
    2019 06 16    16 01 00.7 -09 08 00   1.4408  2.3925   153.4    11.0    23.1
    ...
    2019 06 22    15 56 18.7 -09 24 22   1.5137  2.4314   147.2    13.1    23.3
    ...
    2019 06 30    15 51 45.1 -09 51 48   1.6224  2.4824   139.2    15.5    23.6
    ...
    2019 07 15    15 48 22.3 -10 56 33   1.8557  2.5754   124.9    18.9    24.1
    
    A. U. Tomatic                (C) Copyright 2019 MPC           M.P.E.C. 2019-L99
    


    Read MPEC 2019-L98 Read MPEC 2019-L100


    MPEC number:

    Enter an MPEC number in one of the following forms:

    • 1997-B01 (the full form)
    • J97B01 (the packed version of the full form)
    • B01 (the abbreviated form)